N244BD PHUP-HI23

Flight info

Callsign N244BD
Flight time 0h 47m
Altitude 5500
Route VFR
Aircraft C172/L-SGO/C

Departure

Time 2026-04-18 22:04
Airport Upolu Airport (PHUP)

Arrival

Time 2026-04-18 22:51
Airport Mountain View Airstrip (HI23)
Time Latitude Longitude Altitude Speed Heading
2026-04-18 21:49 20.26507 -155.85822 85 ft 0 kts 245°
2026-04-18 22:00 20.26506 -155.85832 85 ft 1 kts 308°
2026-04-18 22:00 20.26552 -155.85819 85 ft 10 kts 75°
2026-04-18 22:01 20.26568 -155.85736 89 ft 13 kts 71°
2026-04-18 22:01 20.26593 -155.85633 84 ft 16 kts 78°
2026-04-18 22:01 20.26590 -155.85501 87 ft 18 kts 88°
2026-04-18 22:01 20.26626 -155.85477 86 ft 0 kts 298°
2026-04-18 22:02 20.26627 -155.85496 85 ft 0 kts 263°
2026-04-18 22:03 20.26592 -155.85653 84 ft 46 kts 258°
2026-04-18 22:03 20.26492 -155.86130 88 ft 84 kts 257°
2026-04-18 22:03 20.26351 -155.86717 291 ft 83 kts 253°
2026-04-18 22:03 20.26164 -155.87286 535 ft 79 kts 246°
2026-04-18 22:04 20.25942 -155.87835 751 ft 81 kts 243°
2026-04-18 22:04 20.25552 -155.88182 977 ft 81 kts 178°
2026-04-18 22:04 20.25306 -155.87714 1002 ft 99 kts 74°
2026-04-18 22:04 20.25318 -155.86987 1204 ft 96 kts 103°
2026-04-18 22:05 20.25160 -155.86381 1525 ft 80 kts 105°
2026-04-18 22:05 20.24946 -155.85825 1697 ft 81 kts 121°
2026-04-18 22:05 20.24502 -155.85474 1851 ft 83 kts 173°
2026-04-18 22:05 20.24022 -155.85744 2036 ft 82 kts 244°
2026-04-18 22:06 20.23870 -155.86342 2189 ft 89 kts 226°
2026-04-18 22:06 20.23362 -155.86085 2299 ft 94 kts 112°
2026-04-18 22:06 20.23140 -155.85426 2493 ft 100 kts 116°
2026-04-18 22:06 20.22749 -155.84851 2777 ft 96 kts 139°
2026-04-18 22:07 20.22177 -155.84492 3076 ft 92 kts 170°
2026-04-18 22:07 20.21538 -155.84618 3375 ft 95 kts 195°
2026-04-18 22:07 20.20819 -155.84744 3525 ft 107 kts 179°
2026-04-18 22:07 20.20074 -155.84511 3434 ft 118 kts 147°
2026-04-18 22:08 20.19756 -155.83814 3331 ft 126 kts 74°
2026-04-18 22:08 20.20515 -155.83234 3050 ft 141 kts 25°
2026-04-18 22:08 20.21199 -155.82473 2790 ft 144 kts 70°
2026-04-18 22:08 20.21366 -155.81457 2726 ft 140 kts 85°
2026-04-18 22:09 20.21483 -155.80449 2644 ft 138 kts 82°
2026-04-18 22:09 20.21642 -155.79420 2458 ft 141 kts 82°
2026-04-18 22:09 20.21822 -155.78396 2327 ft 141 kts 78°
2026-04-18 22:09 20.22097 -155.77385 2153 ft 143 kts 72°
2026-04-18 22:10 20.22430 -155.76429 2201 ft 135 kts 69°
2026-04-18 22:10 20.22899 -155.75517 2157 ft 145 kts 64°
2026-04-18 22:10 20.23122 -155.74523 2160 ft 136 kts 99°
2026-04-18 22:10 20.22556 -155.73787 2121 ft 130 kts 153°
2026-04-18 22:11 20.21760 -155.73333 2162 ft 127 kts 148°
2026-04-18 22:11 20.21022 -155.72874 2373 ft 120 kts 149°
2026-04-18 22:11 20.20328 -155.72384 2435 ft 117 kts 136°
2026-04-18 22:11 20.19898 -155.71639 2454 ft 120 kts 118°
2026-04-18 22:12 20.19100 -155.70044 2463 ft 123 kts 117°
2026-04-18 22:12 20.18709 -155.69255 2497 ft 121 kts 120°
2026-04-18 22:12 20.18280 -155.68482 2515 ft 121 kts 123°
2026-04-18 22:13 20.17830 -155.67723 2544 ft 122 kts 121°
2026-04-18 22:13 20.17411 -155.66931 2516 ft 126 kts 116°
2026-04-18 22:13 20.17078 -155.66044 2398 ft 132 kts 111°
2026-04-18 22:13 20.16762 -155.65119 2299 ft 134 kts 111°
2026-04-18 22:14 20.16306 -155.64311 2290 ft 129 kts 142°
2026-04-18 22:14 20.15445 -155.64023 2185 ft 132 kts 179°
2026-04-18 22:14 20.14531 -155.64028 2319 ft 126 kts 179°
2026-04-18 22:14 20.13661 -155.64015 2538 ft 128 kts 177°
2026-04-18 22:15 20.12799 -155.63995 2793 ft 119 kts 176°
2026-04-18 22:15 20.11918 -155.63976 2884 ft 127 kts 181°
2026-04-18 22:15 20.11072 -155.64022 3005 ft 122 kts 179°
2026-04-18 22:15 20.10189 -155.64025 2956 ft 131 kts 173°
2026-04-18 22:16 20.09299 -155.64025 3063 ft 125 kts 182°
2026-04-18 22:16 20.08439 -155.64114 3089 ft 123 kts 169°
2026-04-18 22:16 20.07757 -155.63548 2888 ft 136 kts 117°
2026-04-18 22:16 20.07568 -155.62597 2935 ft 124 kts 95°
2026-04-18 22:17 20.07890 -155.61822 2652 ft 139 kts 30°
2026-04-18 22:17 20.08856 -155.61439 2348 ft 140 kts 26°
2026-04-18 22:17 20.09678 -155.60981 2205 ft 140 kts 24°
2026-04-18 22:17 20.10611 -155.60519 1876 ft 147 kts 29°
2026-04-18 22:18 20.11451 -155.59990 1862 ft 135 kts 35°
2026-04-18 22:18 20.12074 -155.59267 1750 ft 136 kts 71°
2026-04-18 22:18 20.12178 -155.58300 1719 ft 129 kts 88°
2026-04-18 22:18 20.12147 -155.57346 1592 ft 129 kts 98°
2026-04-18 22:19 20.12041 -155.56419 1698 ft 122 kts 96°
2026-04-18 22:19 20.11997 -155.55503 1748 ft 127 kts 96°
2026-04-18 22:19 20.11739 -155.54609 1692 ft 128 kts 116°
2026-04-18 22:19 20.11385 -155.53740 1629 ft 128 kts 115°
2026-04-18 22:20 20.10999 -155.52885 1563 ft 128 kts 118°
2026-04-18 22:20 20.10582 -155.52080 1593 ft 120 kts 121°
2026-04-18 22:20 20.10172 -155.51366 1764 ft 103 kts 123°
2026-04-18 22:20 20.09807 -155.50770 1875 ft 99 kts 119°
2026-04-18 22:21 20.09606 -155.50045 1927 ft 102 kts 101°
2026-04-18 22:21 20.09442 -155.49315 2033 ft 101 kts 106°
2026-04-18 22:21 20.09200 -155.48609 2077 ft 104 kts 114°
2026-04-18 22:21 20.08895 -155.47904 2148 ft 107 kts 114°
2026-04-18 22:22 20.08634 -155.47121 2036 ft 122 kts 104°
2026-04-18 22:22 20.08466 -155.46174 1712 ft 139 kts 99°
2026-04-18 22:22 20.08244 -155.45197 1642 ft 132 kts 110°
2026-04-18 22:22 20.07836 -155.44337 1550 ft 130 kts 120°
2026-04-18 22:23 20.07453 -155.43511 1573 ft 121 kts 115°
2026-04-18 22:23 20.07048 -155.42765 1599 ft 115 kts 116°
2026-04-18 22:23 20.06661 -155.42016 1596 ft 115 kts 120°
2026-04-18 22:23 20.06292 -155.41258 1597 ft 116 kts 117°
2026-04-18 22:24 20.05993 -155.40450 1579 ft 116 kts 108°
2026-04-18 22:24 20.05697 -155.39625 1563 ft 119 kts 109°
2026-04-18 22:24 20.05444 -155.38771 1500 ft 122 kts 109°
2026-04-18 22:24 20.05199 -155.37968 1638 ft 111 kts 106°
2026-04-18 22:25 20.04960 -155.37152 1590 ft 119 kts 108°
2026-04-18 22:25 20.04746 -155.36289 1542 ft 121 kts 98°
2026-04-18 22:25 20.04738 -155.35400 1495 ft 120 kts 83°
2026-04-18 22:25 20.04943 -155.34570 1563 ft 114 kts 65°
2026-04-18 22:26 20.04889 -155.33742 1408 ft 126 kts 126°
2026-04-18 22:26 20.04181 -155.33244 1437 ft 116 kts 156°
2026-04-18 22:26 20.03534 -155.32800 1585 ft 112 kts 134°
2026-04-18 22:26 20.03007 -155.32093 1383 ft 129 kts 129°
2026-04-18 22:27 20.02438 -155.31414 1503 ft 117 kts 133°
2026-04-18 22:27 20.01889 -155.30787 1576 ft 115 kts 136°
2026-04-18 22:27 20.01252 -155.30280 1667 ft 109 kts 145°
2026-04-18 22:27 20.00735 -155.29809 1955 ft 85 kts 140°
2026-04-18 22:28 20.00309 -155.29419 2096 ft 86 kts 136°
2026-04-18 22:28 19.99868 -155.28971 2210 ft 88 kts 136°
2026-04-18 22:28 19.99429 -155.28508 2332 ft 90 kts 132°
2026-04-18 22:28 19.99011 -155.28012 2464 ft 89 kts 127°
2026-04-18 22:29 19.98700 -155.27435 2567 ft 91 kts 115°
2026-04-18 22:29 19.98413 -155.26845 2719 ft 90 kts 113°
2026-04-18 22:29 19.98150 -155.26245 2869 ft 90 kts 119°
2026-04-18 22:29 19.97852 -155.25637 2956 ft 97 kts 109°
2026-04-18 22:30 19.97483 -155.24993 3046 ft 110 kts 120°
2026-04-18 22:30 19.97035 -155.24320 3196 ft 109 kts 122°
2026-04-18 22:30 19.96726 -155.23892 3253 ft 113 kts 123°
2026-04-18 22:30 19.96224 -155.23208 3246 ft 121 kts 126°
2026-04-18 22:31 19.95631 -155.22481 2990 ft 137 kts 129°
2026-04-18 22:31 19.94956 -155.21766 2881 ft 135 kts 134°
2026-04-18 22:31 19.94280 -155.21096 2801 ft 132 kts 137°
2026-04-18 22:31 19.93584 -155.20464 2739 ft 129 kts 138°
2026-04-18 22:32 19.92890 -155.19864 2633 ft 130 kts 141°
2026-04-18 22:32 19.92164 -155.19292 2581 ft 129 kts 147°
2026-04-18 22:32 19.91404 -155.18791 2538 ft 130 kts 148°
2026-04-18 22:32 19.90631 -155.18281 2518 ft 130 kts 148°
2026-04-18 22:33 19.89874 -155.17807 2607 ft 124 kts 148°
2026-04-18 22:33 19.89193 -155.17188 2479 ft 132 kts 125°
2026-04-18 22:33 19.88719 -155.16332 2324 ft 138 kts 120°
2026-04-18 22:33 19.88168 -155.15515 2303 ft 132 kts 137°
2026-04-18 22:34 19.87346 -155.15204 2452 ft 121 kts 168°
2026-04-18 22:34 19.86504 -155.15080 2535 ft 121 kts 173°
2026-04-18 22:34 19.85683 -155.14974 2610 ft 122 kts 170°
2026-04-18 22:34 19.84840 -155.14895 2644 ft 127 kts 179°
2026-04-18 22:35 19.84000 -155.15168 2710 ft 125 kts 203°
2026-04-18 22:35 19.83183 -155.15454 2790 ft 123 kts 190°
2026-04-18 22:35 19.82342 -155.15537 2860 ft 119 kts 183°
2026-04-18 22:35 19.81531 -155.15604 2964 ft 116 kts 184°
2026-04-18 22:36 19.80721 -155.15681 3008 ft 118 kts 185°
2026-04-18 22:36 19.79908 -155.15800 3082 ft 117 kts 188°
2026-04-18 22:36 19.79095 -155.15921 3130 ft 119 kts 188°
2026-04-18 22:36 19.78282 -155.16101 3158 ft 121 kts 194°
2026-04-18 22:37 19.77465 -155.16344 3175 ft 122 kts 197°
2026-04-18 22:37 19.76648 -155.16623 3175 ft 124 kts 197°
2026-04-18 22:37 19.75816 -155.16872 3186 ft 125 kts 194°
2026-04-18 22:37 19.74965 -155.17118 3099 ft 131 kts 195°
2026-04-18 22:38 19.74077 -155.17379 2994 ft 134 kts 195°
2026-04-18 22:38 19.73161 -155.17642 2940 ft 132 kts 194°
2026-04-18 22:38 19.72279 -155.17851 2883 ft 133 kts 191°
2026-04-18 22:38 19.71361 -155.18022 2815 ft 133 kts 188°
2026-04-18 22:39 19.70436 -155.18066 2718 ft 135 kts 178°
2026-04-18 22:39 19.69494 -155.18025 2659 ft 134 kts 176°
2026-04-18 22:39 19.68582 -155.17894 2617 ft 132 kts 167°
2026-04-18 22:39 19.67720 -155.17583 2591 ft 130 kts 156°
2026-04-18 22:40 19.66896 -155.17207 2590 ft 128 kts 158°
2026-04-18 22:40 19.66080 -155.16854 2602 ft 126 kts 155°
2026-04-18 22:40 19.65291 -155.16473 2631 ft 124 kts 154°
2026-04-18 22:40 19.64520 -155.16038 2609 ft 127 kts 149°
2026-04-18 22:41 19.63769 -155.15523 2553 ft 130 kts 146°
2026-04-18 22:41 19.63002 -155.15008 2473 ft 133 kts 147°
2026-04-18 22:41 19.62230 -155.14475 2438 ft 131 kts 147°
2026-04-18 22:41 19.61428 -155.14001 2377 ft 131 kts 155°
2026-04-18 22:42 19.60591 -155.13642 2377 ft 128 kts 158°
2026-04-18 22:42 19.59778 -155.13275 2393 ft 127 kts 154°
2026-04-18 22:42 19.58980 -155.12875 2383 ft 127 kts 155°
2026-04-18 22:42 19.58178 -155.12466 2354 ft 129 kts 151°
2026-04-18 22:43 19.57430 -155.11953 2345 ft 127 kts 144°
2026-04-18 22:43 19.56655 -155.11752 2476 ft 110 kts 196°
2026-04-18 22:43 19.56043 -155.12307 2127 ft 127 kts 234°
2026-04-18 22:43 19.55471 -155.12908 2231 ft 109 kts 213°
2026-04-18 22:44 19.54768 -155.13276 2305 ft 113 kts 207°
2026-04-18 22:44 19.54197 -155.13746 2593 ft 96 kts 231°
2026-04-18 22:44 19.53768 -155.14312 2707 ft 102 kts 229°
2026-04-18 22:44 19.53317 -155.14894 2844 ft 103 kts 231°
2026-04-18 22:45 19.52866 -155.15496 2961 ft 105 kts 231°
2026-04-18 22:45 19.52415 -155.16085 3115 ft 103 kts 231°
2026-04-18 22:45 19.51869 -155.16468 3337 ft 91 kts 161°
2026-04-18 22:45 19.52012 -155.15936 3095 ft 121 kts 27°
2026-04-18 22:46 19.52633 -155.15300 2878 ft 127 kts 61°
2026-04-18 22:46 19.52983 -155.14473 2807 ft 115 kts 65°
2026-04-18 22:46 19.53311 -155.13736 2641 ft 106 kts 65°
2026-04-18 22:46 19.53584 -155.13074 2495 ft 93 kts 65°
2026-04-18 22:47 19.53891 -155.12461 2228 ft 93 kts 64°
2026-04-18 22:47 19.54152 -155.11890 2086 ft 81 kts 62°
2026-04-18 22:47 19.54403 -155.11340 1832 ft 81 kts 68°
2026-04-18 22:47 19.54645 -155.10797 1502 ft 80 kts 64°
2026-04-18 22:48 19.54820 -155.10347 1570 ft 63 kts 66°
2026-04-18 22:48 19.54970 -155.09871 1645 ft 72 kts 76°
2026-04-18 22:48 19.54828 -155.09385 1760 ft 78 kts 144°
2026-04-18 22:48 19.54445 -155.09642 1788 ft 84 kts 278°
2026-04-18 22:49 19.54377 -155.10241 1857 ft 92 kts 248°
2026-04-18 22:49 19.54084 -155.10866 1921 ft 95 kts 238°
2026-04-18 22:49 19.53809 -155.11495 2038 ft 90 kts 252°
2026-04-18 22:49 19.53602 -155.12114 2134 ft 90 kts 248°
2026-04-18 22:50 19.53590 -155.12725 2209 ft 90 kts 310°
2026-04-18 22:50 19.54114 -155.12601 2106 ft 104 kts 73°
2026-04-18 22:50 19.54158 -155.11930 1970 ft 78 kts 69°
2026-04-18 22:50 19.54349 -155.11431 1772 ft 68 kts 66°
2026-04-18 22:51 19.54550 -155.11001 1562 ft 65 kts 62°
2026-04-18 22:51 19.54676 -155.10723 1494 ft 11 kts 36°
2026-04-18 22:51 19.54700 -155.10704 1484 ft 8 kts 20°
2026-04-18 22:51 19.54715 -155.10704 1490 ft 1 kts 354°
2026-04-18 22:52 19.54712 -155.10728 1491 ft 0 kts 210°
2026-04-18 22:53 19.54707 -155.10731 1492 ft 0 kts 203°
2026-04-18 22:53 19.54695 -155.10753 1489 ft 8 kts 248°
2026-04-18 22:54 19.54689 -155.10758 1496 ft 0 kts 159°
2026-04-18 22:54 19.54686 -155.10756 1496 ft 0 kts 150°
2026-04-18 22:57 19.54685 -155.10755 1496 ft 3 kts 146°
2026-04-18 22:57 19.54677 -155.10750 1496 ft 0 kts 142°